Year,Month,Day,Hour,Minute,Value (Times are PST for temperature in C)
2016,11,21,00,00,6.50
2016,11,21,00,01,6.50
2016,11,21,00,02,6.50
2016,11,21,00,03,6.50
2016,11,21,00,04,6.50
2016,11,21,00,05,6.50
2016,11,21,00,06,6.50
2016,11,21,00,07,6.30
2016,11,21,00,08,6.30
2016,11,21,00,09,6.30
2016,11,21,00,10,6.30
2016,11,21,00,11,6.30
2016,11,21,00,12,6.30
2016,11,21,00,13,6.20
2016,11,21,00,14,6.20
2016,11,21,00,15,6.20
2016,11,21,00,16,6.20
2016,11,21,00,17,6.10
2016,11,21,00,18,6.10
2016,11,21,00,19,6.10
2016,11,21,00,20,6.20
2016,11,21,00,21,6.20
2016,11,21,00,22,6.20
2016,11,21,00,23,6.20
2016,11,21,00,24,6.20
2016,11,21,00,25,6.20
2016,11,21,00,26,6.10
2016,11,21,00,27,6.10
2016,11,21,00,28,6.10
2016,11,21,00,29,6.00
2016,11,21,00,30,6.00
2016,11,21,00,31,6.00
2016,11,21,00,32,6.10
2016,11,21,00,33,6.20
2016,11,21,00,34,6.20
2016,11,21,00,35,6.20
2016,11,21,00,36,6.30
2016,11,21,00,37,6.30
2016,11,21,00,38,6.30
2016,11,21,00,39,6.30
2016,11,21,00,40,6.40
2016,11,21,00,41,6.50
2016,11,21,00,42,6.60
2016,11,21,00,43,6.70
2016,11,21,00,44,6.80
2016,11,21,00,45,6.90
2016,11,21,00,46,7.10
2016,11,21,00,47,7.20
2016,11,21,00,48,7.20
2016,11,21,00,49,7.20
2016,11,21,00,50,7.20
2016,11,21,00,51,7.20
2016,11,21,00,52,7.20
2016,11,21,00,53,7.20
2016,11,21,00,54,7.30
2016,11,21,00,55,7.30
2016,11,21,00,56,7.20
2016,11,21,00,57,7.20
2016,11,21,00,58,7.20
2016,11,21,00,59,7.20
2016,11,21,01,00,7.20
2016,11,21,01,01,7.10
2016,11,21,01,02,7.10
2016,11,21,01,03,7.10
2016,11,21,01,04,7.10
2016,11,21,01,05,7.10
2016,11,21,01,06,7.00
2016,11,21,01,07,7.00
2016,11,21,01,08,6.90
2016,11,21,01,09,6.90
2016,11,21,01,10,6.80
2016,11,21,01,11,6.80
2016,11,21,01,12,6.70
2016,11,21,01,13,6.70
2016,11,21,01,14,6.70
2016,11,21,01,15,6.60
2016,11,21,01,16,6.60
2016,11,21,01,17,6.60
2016,11,21,01,18,6.60
2016,11,21,01,19,6.60
2016,11,21,01,20,6.50
2016,11,21,01,21,6.50
2016,11,21,01,22,6.50
2016,11,21,01,23,6.40
2016,11,21,01,24,6.40
2016,11,21,01,25,6.40
2016,11,21,01,26,6.40
2016,11,21,01,27,6.30
2016,11,21,01,28,6.30
2016,11,21,01,29,6.30
2016,11,21,01,30,6.20
2016,11,21,01,31,6.20
2016,11,21,01,32,6.20
2016,11,21,01,33,6.20
2016,11,21,01,34,6.20
2016,11,21,01,35,6.20
2016,11,21,01,36,6.10
2016,11,21,01,37,6.10
2016,11,21,01,38,6.00
2016,11,21,01,39,6.00
2016,11,21,01,40,6.00
2016,11,21,01,41,6.00
2016,11,21,01,42,6.00
2016,11,21,01,43,6.00
2016,11,21,01,44,6.00
2016,11,21,01,45,6.00
2016,11,21,01,46,6.00
2016,11,21,01,47,6.00
2016,11,21,01,48,5.90
2016,11,21,01,49,5.80
2016,11,21,01,50,5.80
2016,11,21,01,51,5.80
2016,11,21,01,52,5.90
2016,11,21,01,53,5.90
2016,11,21,01,54,5.90
2016,11,21,01,55,5.90
2016,11,21,01,56,5.90
2016,11,21,01,57,5.90
2016,11,21,01,58,5.80
2016,11,21,01,59,5.90
2016,11,21,02,00,5.90
2016,11,21,02,01,5.90
2016,11,21,02,02,5.90
2016,11,21,02,03,5.90
2016,11,21,02,04,5.90
2016,11,21,02,05,6.00
2016,11,21,02,06,6.00
2016,11,21,02,07,6.00
2016,11,21,02,08,6.00
2016,11,21,02,09,6.00
2016,11,21,02,10,6.00
2016,11,21,02,11,6.00
2016,11,21,02,12,5.90
2016,11,21,02,13,6.00
2016,11,21,02,14,5.90
2016,11,21,02,15,5.90
2016,11,21,02,16,5.90
2016,11,21,02,17,5.90
2016,11,21,02,18,5.90
2016,11,21,02,19,5.90
2016,11,21,02,20,5.90
2016,11,21,02,21,5.90
2016,11,21,02,22,5.90
2016,11,21,02,23,5.90
2016,11,21,02,24,5.90
2016,11,21,02,25,5.90
2016,11,21,02,26,5.90
2016,11,21,02,27,5.90
2016,11,21,02,28,5.80
2016,11,21,02,29,5.80
2016,11,21,02,30,5.80
2016,11,21,02,31,5.80
2016,11,21,02,32,5.80
2016,11,21,02,33,5.80
2016,11,21,02,34,5.80
2016,11,21,02,35,5.90
2016,11,21,02,36,5.80
2016,11,21,02,37,5.80
2016,11,21,02,38,5.80
2016,11,21,02,39,5.80
2016,11,21,02,40,5.80
2016,11,21,02,41,5.80
2016,11,21,02,42,5.80
2016,11,21,02,43,5.80
2016,11,21,02,44,5.70
2016,11,21,02,45,5.70
2016,11,21,02,46,5.80
2016,11,21,02,47,5.70
2016,11,21,02,48,5.70
2016,11,21,02,49,5.60
2016,11,21,02,50,5.60
2016,11,21,02,51,5.60
2016,11,21,02,52,5.60
2016,11,21,02,53,5.60
2016,11,21,02,54,5.70
2016,11,21,02,55,5.80
2016,11,21,02,56,5.80
2016,11,21,02,57,5.80
2016,11,21,02,58,5.80
2016,11,21,02,59,5.90
2016,11,21,03,00,5.90
2016,11,21,03,01,5.90
2016,11,21,03,02,5.90
2016,11,21,03,03,5.90
2016,11,21,03,04,5.90
2016,11,21,03,05,5.80
2016,11,21,03,06,5.80
2016,11,21,03,07,5.80
2016,11,21,03,08,5.80
2016,11,21,03,09,5.80
2016,11,21,03,10,5.80
2016,11,21,03,11,5.80
2016,11,21,03,12,5.80
2016,11,21,03,13,5.80
2016,11,21,03,14,5.80
2016,11,21,03,15,5.80
2016,11,21,03,16,5.70
2016,11,21,03,17,5.70
2016,11,21,03,18,5.70
2016,11,21,03,19,5.70
2016,11,21,03,20,5.70
2016,11,21,03,21,5.60
2016,11,21,03,22,5.60
2016,11,21,03,23,5.60
2016,11,21,03,24,5.50
2016,11,21,03,25,5.50
2016,11,21,03,26,5.50
2016,11,21,03,27,5.50
2016,11,21,03,28,5.50
2016,11,21,03,29,5.50
2016,11,21,03,30,5.50
2016,11,21,03,31,5.40
2016,11,21,03,32,5.40
2016,11,21,03,33,5.40
2016,11,21,03,34,5.40
2016,11,21,03,35,5.40
2016,11,21,03,36,5.50
2016,11,21,03,37,5.50
2016,11,21,03,38,5.60
2016,11,21,03,39,5.70
2016,11,21,03,40,5.80
2016,11,21,03,41,5.80
2016,11,21,03,42,5.90
2016,11,21,03,43,5.90
2016,11,21,03,44,6.00
2016,11,21,03,45,6.10
2016,11,21,03,46,6.10
2016,11,21,03,47,6.10
2016,11,21,03,48,6.10
2016,11,21,03,49,6.20
2016,11,21,03,50,6.20
2016,11,21,03,51,6.20
2016,11,21,03,52,6.20
2016,11,21,03,53,6.20
2016,11,21,03,54,6.30
2016,11,21,03,55,6.30
2016,11,21,03,56,6.30
2016,11,21,03,57,6.40
2016,11,21,03,58,6.40
2016,11,21,03,59,6.40
2016,11,21,04,00,6.40
2016,11,21,04,01,6.40
2016,11,21,04,02,6.50
2016,11,21,04,03,6.60
2016,11,21,04,04,6.50
2016,11,21,04,05,6.50
2016,11,21,04,06,6.50
2016,11,21,04,07,6.40
2016,11,21,04,08,6.40
2016,11,21,04,09,6.40
2016,11,21,04,10,6.30
2016,11,21,04,11,6.30
2016,11,21,04,12,6.20
2016,11,21,04,13,6.20
2016,11,21,04,14,6.20
2016,11,21,04,15,6.20
2016,11,21,04,16,6.20
2016,11,21,04,17,6.20
2016,11,21,04,18,6.20
2016,11,21,04,19,6.20
2016,11,21,04,20,6.20
2016,11,21,04,21,6.20
2016,11,21,04,22,6.20
2016,11,21,04,23,6.20
2016,11,21,04,24,6.20
2016,11,21,04,25,6.20
2016,11,21,04,26,6.10
2016,11,21,04,27,6.10
2016,11,21,04,28,6.20
2016,11,21,04,29,6.20
2016,11,21,04,30,6.20
2016,11,21,04,31,6.20
2016,11,21,04,32,6.30
2016,11,21,04,33,6.40
2016,11,21,04,34,6.60
2016,11,21,04,35,6.70
2016,11,21,04,36,6.80
2016,11,21,04,37,6.90
2016,11,21,04,38,7.00
2016,11,21,04,39,7.10
2016,11,21,04,40,7.20
2016,11,21,04,41,7.30
2016,11,21,04,42,7.30
2016,11,21,04,43,7.40
2016,11,21,04,44,7.40
2016,11,21,04,45,7.50
2016,11,21,04,46,7.60
2016,11,21,04,47,7.60
2016,11,21,04,48,7.60
2016,11,21,04,49,7.60
2016,11,21,04,50,7.60
2016,11,21,04,51,7.70
2016,11,21,04,52,7.70
2016,11,21,04,53,7.70
2016,11,21,04,54,7.70
2016,11,21,04,55,7.80
2016,11,21,04,56,7.80
2016,11,21,04,57,7.80
2016,11,21,04,58,7.90
2016,11,21,04,59,7.90
2016,11,21,05,00,7.90
2016,11,21,05,01,7.90
2016,11,21,05,02,7.90
2016,11,21,05,03,7.80
2016,11,21,05,04,7.80
2016,11,21,05,05,7.80
2016,11,21,05,06,7.70
2016,11,21,05,07,7.70
2016,11,21,05,08,7.70
2016,11,21,05,09,7.60
2016,11,21,05,10,7.50
2016,11,21,05,11,7.50
2016,11,21,05,12,7.40
2016,11,21,05,13,7.30
2016,11,21,05,14,7.20
2016,11,21,05,15,7.20
2016,11,21,05,16,7.20
2016,11,21,05,17,7.20
2016,11,21,05,18,7.20
2016,11,21,05,19,7.20
2016,11,21,05,20,7.20
2016,11,21,05,21,7.20
2016,11,21,05,22,7.20
2016,11,21,05,23,7.30
2016,11,21,05,24,7.40
2016,11,21,05,25,7.50
2016,11,21,05,26,7.60
2016,11,21,05,27,7.80
2016,11,21,05,28,7.90
2016,11,21,05,29,7.90
2016,11,21,05,30,8.00
2016,11,21,05,31,8.10
2016,11,21,05,32,8.10
2016,11,21,05,33,8.20
2016,11,21,05,34,8.30
2016,11,21,05,35,8.40
2016,11,21,05,36,8.40
2016,11,21,05,37,8.50
2016,11,21,05,38,8.60
2016,11,21,05,39,8.60
2016,11,21,05,40,8.60
2016,11,21,05,41,8.60
2016,11,21,05,42,8.60
2016,11,21,05,43,8.60
2016,11,21,05,44,8.50
2016,11,21,05,45,8.50
2016,11,21,05,46,8.50
2016,11,21,05,47,8.40
2016,11,21,05,48,8.40
2016,11,21,05,49,8.30
2016,11,21,05,50,8.20
2016,11,21,05,51,8.20
2016,11,21,05,52,8.10
2016,11,21,05,53,8.00
2016,11,21,05,54,7.90
2016,11,21,05,55,7.80
2016,11,21,05,56,7.70
2016,11,21,05,57,7.60
2016,11,21,05,58,7.50
2016,11,21,05,59,7.40
2016,11,21,06,00,7.30
2016,11,21,06,01,7.20
2016,11,21,06,02,7.20
2016,11,21,06,03,7.10
2016,11,21,06,04,7.10
2016,11,21,06,05,7.10
2016,11,21,06,06,7.10
2016,11,21,06,07,7.10
2016,11,21,06,08,7.10
2016,11,21,06,09,7.20
2016,11,21,06,10,7.20
2016,11,21,06,11,7.20
2016,11,21,06,12,7.20
2016,11,21,06,13,7.20
2016,11,21,06,14,7.20
2016,11,21,06,15,7.30
2016,11,21,06,16,7.20
2016,11,21,06,17,7.20
2016,11,21,06,18,7.20
2016,11,21,06,19,7.10
2016,11,21,06,20,7.10
2016,11,21,06,21,7.00
2016,11,21,06,22,6.90
2016,11,21,06,23,6.90
2016,11,21,06,24,6.90
2016,11,21,06,25,6.90
2016,11,21,06,26,7.00
2016,11,21,06,27,7.00
2016,11,21,06,28,7.10
2016,11,21,06,29,7.10
2016,11,21,06,30,7.10
2016,11,21,06,31,7.10
2016,11,21,06,32,7.10
2016,11,21,06,33,7.20
2016,11,21,06,34,7.20
2016,11,21,06,35,7.30
2016,11,21,06,36,7.40
2016,11,21,06,37,7.50
2016,11,21,06,38,7.60
2016,11,21,06,39,7.60
2016,11,21,06,40,7.70
2016,11,21,06,41,7.70
2016,11,21,06,42,7.80
2016,11,21,06,43,7.80
2016,11,21,06,44,7.90
2016,11,21,06,45,7.90
2016,11,21,06,46,8.00
2016,11,21,06,47,8.00
2016,11,21,06,48,8.10
2016,11,21,06,49,8.10
2016,11,21,06,50,8.10
2016,11,21,06,51,8.20
2016,11,21,06,52,8.20
2016,11,21,06,53,8.30
2016,11,21,06,54,8.30
2016,11,21,06,55,8.30
2016,11,21,06,56,8.40
2016,11,21,06,57,8.40
2016,11,21,06,58,8.40
2016,11,21,06,59,8.40
2016,11,21,07,00,8.40
2016,11,21,07,01,8.30
2016,11,21,07,02,8.30
2016,11,21,07,03,8.30
2016,11,21,07,04,8.30
2016,11,21,07,05,8.20
2016,11,21,07,06,8.20
2016,11,21,07,07,8.20
2016,11,21,07,08,8.20
2016,11,21,07,09,8.10
2016,11,21,07,10,8.10
2016,11,21,07,11,8.10
2016,11,21,07,12,8.10
2016,11,21,07,13,8.10
2016,11,21,07,14,8.00
2016,11,21,07,15,8.00
2016,11,21,07,16,7.90
2016,11,21,07,17,7.80
2016,11,21,07,18,7.80
2016,11,21,07,19,7.70
2016,11,21,07,20,7.70
2016,11,21,07,21,7.70
2016,11,21,07,22,7.70
2016,11,21,07,23,7.70
2016,11,21,07,24,7.80
2016,11,21,07,25,7.80
2016,11,21,07,26,7.80
2016,11,21,07,27,7.80
2016,11,21,07,28,7.80
2016,11,21,07,29,7.80
2016,11,21,07,30,7.80
2016,11,21,07,31,7.80
2016,11,21,07,32,7.80
2016,11,21,07,33,7.80
2016,11,21,07,34,7.70
2016,11,21,07,35,7.70
2016,11,21,07,36,7.60
2016,11,21,07,37,7.50
2016,11,21,07,38,7.50
2016,11,21,07,39,7.40
2016,11,21,07,40,7.40
2016,11,21,07,41,7.30
2016,11,21,07,42,7.30
2016,11,21,07,43,7.20
2016,11,21,07,44,7.20
2016,11,21,07,45,7.10
2016,11,21,07,46,7.10
2016,11,21,07,47,7.10
2016,11,21,07,48,7.00
2016,11,21,07,49,7.00
2016,11,21,07,50,6.90
2016,11,21,07,51,6.90
2016,11,21,07,52,6.80
2016,11,21,07,53,6.70
2016,11,21,07,54,6.70
2016,11,21,07,55,6.60
2016,11,21,07,56,6.50
2016,11,21,07,57,6.50
2016,11,21,07,58,6.40
2016,11,21,07,59,6.30
2016,11,21,08,00,6.20
2016,11,21,08,01,6.20
2016,11,21,08,02,6.10
2016,11,21,08,03,6.00
2016,11,21,08,04,5.90
2016,11,21,08,05,5.90
2016,11,21,08,06,5.80
2016,11,21,08,07,5.80
2016,11,21,08,08,5.80
2016,11,21,08,09,5.80
2016,11,21,08,10,5.80
2016,11,21,08,11,5.80
2016,11,21,08,12,5.70
2016,11,21,08,13,5.70
2016,11,21,08,14,5.70
2016,11,21,08,15,5.70
2016,11,21,08,16,5.60
2016,11,21,08,17,5.60
2016,11,21,08,18,5.50
2016,11,21,08,19,5.50
2016,11,21,08,20,5.40
2016,11,21,08,21,5.40
2016,11,21,08,22,5.30
2016,11,21,08,23,5.30
2016,11,21,08,24,5.30
2016,11,21,08,25,5.30
2016,11,21,08,26,5.30
2016,11,21,08,27,5.30
2016,11,21,08,28,5.20
2016,11,21,08,29,5.20
2016,11,21,08,30,5.20
2016,11,21,08,31,5.20
2016,11,21,08,32,5.10
2016,11,21,08,33,5.10
2016,11,21,08,34,5.10
2016,11,21,08,35,5.00
2016,11,21,08,36,5.00
2016,11,21,08,37,4.90
2016,11,21,08,38,4.90
2016,11,21,08,39,4.90
2016,11,21,08,40,4.80
2016,11,21,08,41,4.80
2016,11,21,08,42,4.80
2016,11,21,08,43,4.80
2016,11,21,08,44,4.80
2016,11,21,08,45,4.80
2016,11,21,08,46,4.80
2016,11,21,08,47,4.80
2016,11,21,08,48,4.80
2016,11,21,08,49,4.80
2016,11,21,08,50,4.80
2016,11,21,08,51,4.80
2016,11,21,08,52,4.80
2016,11,21,08,53,4.80
2016,11,21,08,54,4.80
2016,11,21,08,55,4.90
2016,11,21,08,56,4.90
2016,11,21,08,57,4.90
2016,11,21,08,58,4.90
2016,11,21,08,59,4.90
2016,11,21,09,00,5.00
2016,11,21,09,01,5.00
2016,11,21,09,02,5.00
2016,11,21,09,03,5.10
2016,11,21,09,04,5.10
2016,11,21,09,05,5.10
2016,11,21,09,06,5.10
2016,11,21,09,07,5.10
2016,11,21,09,08,5.10
2016,11,21,09,09,5.10
2016,11,21,09,10,5.10
2016,11,21,09,11,5.10
2016,11,21,09,12,5.10
2016,11,21,09,13,5.10
2016,11,21,09,14,5.10
2016,11,21,09,15,5.10
2016,11,21,09,16,5.00
2016,11,21,09,17,5.10
2016,11,21,09,18,5.00
2016,11,21,09,19,5.00
2016,11,21,09,20,5.10
2016,11,21,09,21,5.10
2016,11,21,09,22,5.10
2016,11,21,09,23,5.10
2016,11,21,09,24,5.10
2016,11,21,09,25,5.10
2016,11,21,09,26,5.20
2016,11,21,09,27,5.20
2016,11,21,09,28,5.20
2016,11,21,09,29,5.30
2016,11,21,09,30,5.30
2016,11,21,09,31,5.30
2016,11,21,09,32,5.40
2016,11,21,09,33,5.40
2016,11,21,09,34,5.40
2016,11,21,09,35,5.40
2016,11,21,09,36,5.50
2016,11,21,09,37,5.50
2016,11,21,09,38,5.50
2016,11,21,09,39,5.60
2016,11,21,09,40,5.60
2016,11,21,09,41,5.60
2016,11,21,09,42,5.70
2016,11,21,09,43,5.70
2016,11,21,09,44,5.70
2016,11,21,09,45,5.70
2016,11,21,09,46,5.80
2016,11,21,09,47,5.80
2016,11,21,09,48,5.90
2016,11,21,09,49,6.00
2016,11,21,09,50,6.10
2016,11,21,09,51,6.20
2016,11,21,09,52,6.40
2016,11,21,09,53,6.50
2016,11,21,09,54,6.70
2016,11,21,09,55,6.80
2016,11,21,09,56,7.00
2016,11,21,09,57,7.20
2016,11,21,09,58,7.30
2016,11,21,09,59,7.50
2016,11,21,10,00,7.60
2016,11,21,10,01,7.80
2016,11,21,10,02,7.90
2016,11,21,10,03,8.00
2016,11,21,10,04,8.10
2016,11,21,10,05,8.20
2016,11,21,10,06,8.40
2016,11,21,10,07,8.50
2016,11,21,10,08,8.70
2016,11,21,10,09,8.90
2016,11,21,10,10,9.10
2016,11,21,10,11,9.20
2016,11,21,10,12,9.30
2016,11,21,10,13,9.40
2016,11,21,10,14,9.50
2016,11,21,10,15,9.50
2016,11,21,10,16,9.60
2016,11,21,10,17,9.70
2016,11,21,10,18,9.70
2016,11,21,10,19,9.70
2016,11,21,10,20,9.80
2016,11,21,10,21,9.80
2016,11,21,10,22,9.80
2016,11,21,10,23,9.80
2016,11,21,10,24,9.80
2016,11,21,10,25,9.90
2016,11,21,10,26,10.00
2016,11,21,10,27,10.10
2016,11,21,10,28,10.20
2016,11,21,10,29,10.30
2016,11,21,10,30,10.40
2016,11,21,10,31,10.50
2016,11,21,10,32,10.60
2016,11,21,10,33,10.70
2016,11,21,10,34,10.70
2016,11,21,10,35,10.70
2016,11,21,10,36,10.70
2016,11,21,10,37,10.70
2016,11,21,10,38,10.70
2016,11,21,10,39,10.60
2016,11,21,10,40,10.60
2016,11,21,10,41,10.50
2016,11,21,10,42,10.40
2016,11,21,10,43,10.40
2016,11,21,10,44,10.30
2016,11,21,10,45,10.20
2016,11,21,10,46,10.20
2016,11,21,10,47,10.10
2016,11,21,10,48,10.10
2016,11,21,10,49,10.10
2016,11,21,10,50,10.10
2016,11,21,10,51,10.10
2016,11,21,10,52,10.10
2016,11,21,10,53,10.10
2016,11,21,10,54,10.10
2016,11,21,10,55,10.00
2016,11,21,10,56,9.90
2016,11,21,10,57,9.90
2016,11,21,10,58,9.80
2016,11,21,10,59,9.80
2016,11,21,11,00,9.80
2016,11,21,11,01,9.80
2016,11,21,11,02,9.80
2016,11,21,11,03,9.80
2016,11,21,11,04,9.80
2016,11,21,11,05,9.80
2016,11,21,11,06,9.90
2016,11,21,11,07,9.90
2016,11,21,11,08,9.90
2016,11,21,11,09,9.90
2016,11,21,11,10,9.90
2016,11,21,11,11,9.90
2016,11,21,11,12,10.00
2016,11,21,11,13,10.00
2016,11,21,11,14,10.00
2016,11,21,11,15,10.00
2016,11,21,11,16,10.10
2016,11,21,11,17,10.10
2016,11,21,11,18,10.10
2016,11,21,11,19,10.20
2016,11,21,11,20,10.20
2016,11,21,11,21,10.30
2016,11,21,11,22,10.30
2016,11,21,11,23,10.30
2016,11,21,11,24,10.40
2016,11,21,11,25,10.40
2016,11,21,11,26,10.40
2016,11,21,11,27,10.40
2016,11,21,11,28,10.30
2016,11,21,11,29,10.30
2016,11,21,11,30,10.30
2016,11,21,11,31,10.20
2016,11,21,11,32,10.20
2016,11,21,11,33,10.20
2016,11,21,11,34,10.20
2016,11,21,11,35,10.20
2016,11,21,11,36,10.20
2016,11,21,11,37,10.20
2016,11,21,11,38,10.20
2016,11,21,11,39,10.10
2016,11,21,11,40,10.10
2016,11,21,11,41,10.10
2016,11,21,11,42,10.10
2016,11,21,11,43,10.10
2016,11,21,11,44,10.10
2016,11,21,11,45,10.10
2016,11,21,11,46,10.20
2016,11,21,11,47,10.20
2016,11,21,11,48,10.30
2016,11,21,11,49,10.40
2016,11,21,11,50,10.40
2016,11,21,11,51,10.40
2016,11,21,11,52,10.50
2016,11,21,11,53,10.50
2016,11,21,11,54,10.60
2016,11,21,11,55,10.60
2016,11,21,11,56,10.70
2016,11,21,11,57,10.70
2016,11,21,11,58,10.70
2016,11,21,11,59,10.70
2016,11,21,12,00,10.70
2016,11,21,12,01,10.70
2016,11,21,12,02,10.60
2016,11,21,12,03,10.60
2016,11,21,12,04,10.50
2016,11,21,12,05,10.40
2016,11,21,12,06,10.40
2016,11,21,12,07,10.40
2016,11,21,12,08,10.40
2016,11,21,12,09,10.50
2016,11,21,12,10,10.50
2016,11,21,12,11,10.60
2016,11,21,12,12,10.60
2016,11,21,12,13,10.70
2016,11,21,12,14,10.70
2016,11,21,12,15,10.70
2016,11,21,12,16,10.70
2016,11,21,12,17,10.70
2016,11,21,12,18,10.70
2016,11,21,12,19,10.70
2016,11,21,12,20,10.70
2016,11,21,12,21,10.70
2016,11,21,12,22,10.60
2016,11,21,12,23,10.70
2016,11,21,12,24,10.70
2016,11,21,12,25,10.80
2016,11,21,12,26,10.80
2016,11,21,12,27,10.90
2016,11,21,12,28,11.00
2016,11,21,12,29,11.10
2016,11,21,12,30,11.10
2016,11,21,12,31,11.20
2016,11,21,12,32,11.20
2016,11,21,12,33,11.20
2016,11,21,12,34,11.20
2016,11,21,12,35,11.20
2016,11,21,12,36,11.20
2016,11,21,12,37,11.20
2016,11,21,12,38,11.20
2016,11,21,12,39,11.20
2016,11,21,12,40,11.20
2016,11,21,12,41,11.20
2016,11,21,12,42,11.20
2016,11,21,12,43,11.30
2016,11,21,12,44,11.30
2016,11,21,12,45,11.40
2016,11,21,12,46,11.40
2016,11,21,12,47,11.40
2016,11,21,12,48,11.50
2016,11,21,12,49,11.60
2016,11,21,12,50,11.60
2016,11,21,12,51,11.60
2016,11,21,12,52,11.50
2016,11,21,12,53,11.50
2016,11,21,12,54,11.50
2016,11,21,12,55,11.60
2016,11,21,12,56,11.70
2016,11,21,12,57,11.70
2016,11,21,12,58,11.70
2016,11,21,12,59,11.70
2016,11,21,13,00,11.70
2016,11,21,13,01,11.70
2016,11,21,13,02,11.70
2016,11,21,13,03,11.70
2016,11,21,13,04,11.70
2016,11,21,13,05,11.70
2016,11,21,13,06,11.70
2016,11,21,13,07,11.60
2016,11,21,13,08,11.50
2016,11,21,13,09,11.50
2016,11,21,13,10,11.40
2016,11,21,13,11,11.40
2016,11,21,13,12,11.40
2016,11,21,13,13,11.40
2016,11,21,13,14,11.40
2016,11,21,13,15,11.30
2016,11,21,13,16,11.30
2016,11,21,13,17,11.30
2016,11,21,13,18,11.30
2016,11,21,13,19,11.30
2016,11,21,13,20,11.30
2016,11,21,13,21,11.30
2016,11,21,13,22,11.20
2016,11,21,13,23,11.20
2016,11,21,13,24,11.20
2016,11,21,13,25,11.30
2016,11,21,13,26,11.30
2016,11,21,13,27,11.40
2016,11,21,13,28,11.40
2016,11,21,13,29,11.40
2016,11,21,13,30,11.40
2016,11,21,13,31,11.40
2016,11,21,13,32,11.30
2016,11,21,13,33,11.30
2016,11,21,13,34,11.20
2016,11,21,13,35,11.10
2016,11,21,13,36,11.00
2016,11,21,13,37,11.00
2016,11,21,13,38,10.90
2016,11,21,13,39,10.90
2016,11,21,13,40,10.90
2016,11,21,13,41,10.90
2016,11,21,13,42,10.80
2016,11,21,13,43,10.80
2016,11,21,13,44,10.80
2016,11,21,13,45,10.80
2016,11,21,13,46,10.80
2016,11,21,13,47,10.80
2016,11,21,13,48,10.90
2016,11,21,13,49,10.90
2016,11,21,13,50,10.90
2016,11,21,13,51,10.90
2016,11,21,13,52,10.90
2016,11,21,13,53,10.80
2016,11,21,13,54,10.80
2016,11,21,13,55,10.80
2016,11,21,13,56,10.80
2016,11,21,13,57,10.80
2016,11,21,13,58,10.80
2016,11,21,13,59,10.90
2016,11,21,14,00,10.90
2016,11,21,14,01,11.00
2016,11,21,14,02,11.10
2016,11,21,14,03,11.10
2016,11,21,14,04,11.10
2016,11,21,14,05,11.20
2016,11,21,14,06,11.20
2016,11,21,14,07,11.20
2016,11,21,14,08,11.20
2016,11,21,14,09,11.20
2016,11,21,14,10,11.30
2016,11,21,14,11,11.30
2016,11,21,14,12,11.40
2016,11,21,14,13,11.40
2016,11,21,14,14,11.40
2016,11,21,14,15,11.40
2016,11,21,14,16,11.40
2016,11,21,14,17,11.40
2016,11,21,14,18,11.50
2016,11,21,14,19,11.50
2016,11,21,14,20,11.50
2016,11,21,14,21,11.50
2016,11,21,14,22,11.50
2016,11,21,14,23,11.50
2016,11,21,14,24,11.50
2016,11,21,14,25,11.50
2016,11,21,14,26,11.40
2016,11,21,14,27,11.40
2016,11,21,14,28,11.40
2016,11,21,14,29,11.40
2016,11,21,14,30,11.40
2016,11,21,14,31,11.30
2016,11,21,14,32,11.30
2016,11,21,14,33,11.30
2016,11,21,14,34,11.30
2016,11,21,14,35,11.30
2016,11,21,14,36,11.30
2016,11,21,14,37,11.30
2016,11,21,14,38,11.30
2016,11,21,14,39,11.30
2016,11,21,14,40,11.30
2016,11,21,14,41,11.30
2016,11,21,14,42,11.30
2016,11,21,14,43,11.30
2016,11,21,14,44,11.30
2016,11,21,14,45,11.30
2016,11,21,14,46,11.30
2016,11,21,14,47,11.30
2016,11,21,14,48,11.30
2016,11,21,14,49,11.30
2016,11,21,14,50,11.20
2016,11,21,14,51,11.20
2016,11,21,14,52,11.10
2016,11,21,14,53,11.10
2016,11,21,14,54,11.00
2016,11,21,14,55,11.00
2016,11,21,14,56,10.90
2016,11,21,14,57,10.80
2016,11,21,14,58,10.80
2016,11,21,14,59,10.80
2016,11,21,15,00,10.70
2016,11,21,15,01,10.60
2016,11,21,15,02,10.60
2016,11,21,15,03,10.60
2016,11,21,15,04,10.50
2016,11,21,15,05,10.50
2016,11,21,15,06,10.50
2016,11,21,15,07,10.40
2016,11,21,15,08,10.40
2016,11,21,15,09,10.40
2016,11,21,15,10,10.30
2016,11,21,15,11,10.30
2016,11,21,15,12,10.30
2016,11,21,15,13,10.20
2016,11,21,15,14,10.20
2016,11,21,15,15,10.20
2016,11,21,15,16,10.20
2016,11,21,15,17,10.20
2016,11,21,15,18,10.20
2016,11,21,15,19,10.20
2016,11,21,15,20,10.20
2016,11,21,15,21,10.20
2016,11,21,15,22,10.20
2016,11,21,15,23,10.30
2016,11,21,15,24,10.30
2016,11,21,15,25,10.30
2016,11,21,15,26,10.40
2016,11,21,15,27,10.40
2016,11,21,15,28,10.40
2016,11,21,15,29,10.50
2016,11,21,15,30,10.50
2016,11,21,15,31,10.50
2016,11,21,15,32,10.60
2016,11,21,15,33,10.60
2016,11,21,15,34,10.60
2016,11,21,15,35,10.60
2016,11,21,15,36,10.60
2016,11,21,15,37,10.60
2016,11,21,15,38,10.60
2016,11,21,15,39,10.70
2016,11,21,15,40,10.70
2016,11,21,15,41,10.70
2016,11,21,15,42,10.80
2016,11,21,15,43,10.80
2016,11,21,15,44,10.80
2016,11,21,15,45,10.80
2016,11,21,15,46,10.80
2016,11,21,15,47,10.80
2016,11,21,15,48,10.80
2016,11,21,15,49,10.80
2016,11,21,15,50,10.80
2016,11,21,15,51,10.80
2016,11,21,15,52,10.80
2016,11,21,15,53,10.80
2016,11,21,15,54,10.70
2016,11,21,15,55,10.60
2016,11,21,15,56,10.60
2016,11,21,15,57,10.50
2016,11,21,15,58,10.40
2016,11,21,15,59,10.30
2016,11,21,16,00,10.20
2016,11,21,16,01,10.10
2016,11,21,16,02,10.00
2016,11,21,16,03,9.90
2016,11,21,16,04,9.90
2016,11,21,16,05,9.80
2016,11,21,16,06,9.70
2016,11,21,16,07,9.60
2016,11,21,16,08,9.50
2016,11,21,16,09,9.40
2016,11,21,16,10,9.30
2016,11,21,16,11,9.20
2016,11,21,16,12,9.20
2016,11,21,16,13,9.10
2016,11,21,16,14,9.10
2016,11,21,16,15,9.00
2016,11,21,16,16,9.00
2016,11,21,16,17,8.90
2016,11,21,16,18,8.80
2016,11,21,16,19,8.80
2016,11,21,16,20,8.70
2016,11,21,16,21,8.60
2016,11,21,16,22,8.50
2016,11,21,16,23,8.50
2016,11,21,16,24,8.40
2016,11,21,16,25,8.30
2016,11,21,16,26,8.20
2016,11,21,16,27,8.20
2016,11,21,16,28,8.10
2016,11,21,16,29,8.00
2016,11,21,16,30,7.90
2016,11,21,16,31,7.90
2016,11,21,16,32,7.80
2016,11,21,16,33,7.80
2016,11,21,16,34,7.70
2016,11,21,16,35,7.60
2016,11,21,16,36,7.60
2016,11,21,16,37,7.50
2016,11,21,16,38,7.50
2016,11,21,16,39,7.40
2016,11,21,16,40,7.40
2016,11,21,16,41,7.40
2016,11,21,16,42,7.30
2016,11,21,16,43,7.30
2016,11,21,16,44,7.20
2016,11,21,16,45,7.20
2016,11,21,16,46,7.20
2016,11,21,16,47,7.10
2016,11,21,16,48,7.10
2016,11,21,16,49,7.00
2016,11,21,16,50,7.00
2016,11,21,16,51,6.90
2016,11,21,16,52,6.90
2016,11,21,16,53,6.80
2016,11,21,16,54,6.80
2016,11,21,16,55,6.80
2016,11,21,16,56,6.70
2016,11,21,16,57,6.70
2016,11,21,16,58,6.60
2016,11,21,16,59,6.60
2016,11,21,17,00,6.60
2016,11,21,17,01,6.60
2016,11,21,17,02,6.60
2016,11,21,17,03,6.60
2016,11,21,17,04,6.60
2016,11,21,17,05,6.60
2016,11,21,17,06,6.60
2016,11,21,17,07,6.60
2016,11,21,17,08,6.60
2016,11,21,17,09,6.60
2016,11,21,17,10,6.60
2016,11,21,17,11,6.60
2016,11,21,17,12,6.50
2016,11,21,17,13,6.50
2016,11,21,17,14,6.50
2016,11,21,17,15,6.50
2016,11,21,17,16,6.50
2016,11,21,17,17,6.40
2016,11,21,17,18,6.40
2016,11,21,17,19,6.40
2016,11,21,17,20,6.40
2016,11,21,17,21,6.40
2016,11,21,17,22,6.40
2016,11,21,17,23,6.30
2016,11,21,17,24,6.30
2016,11,21,17,25,6.30
2016,11,21,17,26,6.20
2016,11,21,17,27,6.10
2016,11,21,17,28,6.00
2016,11,21,17,29,6.00
2016,11,21,17,30,5.90
2016,11,21,17,31,5.80
2016,11,21,17,32,5.70
2016,11,21,17,33,5.60
2016,11,21,17,34,5.50
2016,11,21,17,35,5.50
2016,11,21,17,36,5.40
2016,11,21,17,37,5.40
2016,11,21,17,38,5.30
2016,11,21,17,39,5.30
2016,11,21,17,40,5.20
2016,11,21,17,41,5.20
2016,11,21,17,42,5.20
2016,11,21,17,43,5.20
2016,11,21,17,44,5.10
2016,11,21,17,45,5.10
2016,11,21,17,46,5.10
2016,11,21,17,47,5.00
2016,11,21,17,48,5.00
2016,11,21,17,49,4.90
2016,11,21,17,50,4.90
2016,11,21,17,51,4.80
2016,11,21,17,52,4.70